When you browse on this site, cookies collect data to enhance your experience and personalize the content and advertising you see.
Visit our Privacy Policy to learn more. By continuing to use the site, you agree to this use of cookies and data.
  • In Lithuania
  • List of Countries
  • For 7 days
  • Water Temperature
  • Satellite Maps
  • Weather Map
  • Weather Widgets
  • user-avatar
    Login

    Hourly Weather Leninskiy

    Today, 20 July, Saturday

    Time Temperature Precipitation Wind Pressure Humidity
    00:00 +18°C° 0 mm 2 mps 749 mmHg 68%
    01:00 +18°C° 0 mm 2 mps 749 mmHg 71%
    02:00 +18°C° 0 mm 2 mps 749 mmHg 73%
    03:00 +17°C° 0 mm 2 mps 749 mmHg 77%
    04:00 +16°C° 0 mm 2 mps 749 mmHg 80%
    05:00 +16°C° 0 mm 2 mps 749 mmHg 84%
    06:00 +18°C° 0 mm 2 mps 749 mmHg 78%
    07:00 +21°C° 0 mm 1 mps 749 mmHg 73%
    08:00 +23°C° 0 mm 1 mps 750 mmHg 66%
    09:00 +24°C° 0.2 mm 1 mps 750 mmHg 60%
    10:00 +26°C° 0.2 mm 1 mps 750 mmHg 54%
    11:00 +27°C° 0.2 mm 1 mps 750 mmHg 48%
    12:00 +28°C° 0 mm 1 mps 750 mmHg 47%
    13:00 +28°C° 0 mm 2 mps 750 mmHg 46%
    14:00 +28°C° 0 mm 2 mps 750 mmHg 45%
    15:00 +28°C° 0 mm 2 mps 750 mmHg 48%
    16:00 +28°C° 0 mm 2 mps 750 mmHg 51%
    17:00 +27°C° 0 mm 2 mps 750 mmHg 53%
    18:00 +26°C° 0.1 mm 2 mps 750 mmHg 59%
    19:00 +25°C° 0.1 mm 1 mps 749 mmHg 64%
    20:00 +23°C° 0.1 mm 1 mps 749 mmHg 69%
    21:00 +22°C° 0 mm 1 mps 749 mmHg 73%
    22:00 +21°C° 0 mm 1 mps 750 mmHg 76%
    23:00 +20°C° 0 mm 1 mps 750 mmHg 80%

    Tomorrow, 21 July, Sunday

    Time Temperature Precipitation Wind Pressure Humidity
    00:00 +20°C° 0 mm 1 mps 750 mmHg 81%
    01:00 +19°C° 0 mm 1 mps 750 mmHg 83%
    02:00 +19°C° 0 mm 1 mps 750 mmHg 84%
    03:00 +19°C° 0 mm 1 mps 750 mmHg 85%
    04:00 +18°C° 0 mm 1 mps 750 mmHg 86%
    05:00 +18°C° 0 mm 1 mps 750 mmHg 87%
    06:00 +20°C° 0 mm 1 mps 750 mmHg 81%
    07:00 +22°C° 0 mm 1 mps 750 mmHg 76%
    08:00 +23°C° 0 mm 1 mps 750 mmHg 71%
    09:00 +25°C° 0 mm 1 mps 750 mmHg 65%
    10:00 +26°C° 0 mm 1 mps 750 mmHg 59%
    11:00 +28°C° 0 mm 1 mps 750 mmHg 53%
    12:00 +28°C° 0 mm 1 mps 750 mmHg 51%
    13:00 +29°C° 0 mm 2 mps 750 mmHg 49%
    14:00 +29°C° 0 mm 2 mps 749 mmHg 47%
    15:00 +29°C° 0 mm 2 mps 749 mmHg 47%
    16:00 +30°C° 0 mm 2 mps 749 mmHg 46%
    17:00 +30°C° 0 mm 2 mps 749 mmHg 46%
    18:00 +28°C° 0.9 mm 3 mps 749 mmHg 56%
    19:00 +26°C° 0.9 mm 4 mps 749 mmHg 67%
    20:00 +23°C° 0.9 mm 6 mps 749 mmHg 77%
    21:00 +22°C° 0.8 mm 5 mps 749 mmHg 82%
    22:00 +21°C° 0.8 mm 4 mps 749 mmHg 87%
    23:00 +20°C° 0.8 mm 3 mps 749 mmHg 93%

    Day after tomorrow, 22 July, Monday

    Time Temperature Precipitation Wind Pressure Humidity
    00:00 +19°C° 0.1 mm 3 mps 749 mmHg 93%
    01:00 +19°C° 0.1 mm 3 mps 749 mmHg 94%
    02:00 +19°C° 0.1 mm 3 mps 749 mmHg 95%
    03:00 +19°C° 0.3 mm 3 mps 749 mmHg 95%
    04:00 +18°C° 0.3 mm 4 mps 749 mmHg 95%
    05:00 +17°C° 0.3 mm 5 mps 749 mmHg 95%
    06:00 +19°C° 0 mm 5 mps 750 mmHg 91%
    07:00 +19°C° 0 mm 6 mps 750 mmHg 87%
    08:00 +19°C° 0 mm 6 mps 750 mmHg 82%
    09:00 +20°C° 0 mm 6 mps 750 mmHg 77%
    10:00 +22°C° 0 mm 6 mps 751 mmHg 71%
    11:00 +23°C° 0 mm 6 mps 751 mmHg 65%
    12:00 +23°C° 0 mm 6 mps 751 mmHg 65%
    13:00 +22°C° 0 mm 6 mps 751 mmHg 65%
    14:00 +22°C° 0 mm 6 mps 751 mmHg 65%
    15:00 +22°C° 0.2 mm 6 mps 751 mmHg 66%
    16:00 +23°C° 0.2 mm 6 mps 751 mmHg 67%
    17:00 +23°C° 0.2 mm 7 mps 751 mmHg 68%
    18:00 +22°C° 0.1 mm 6 mps 751 mmHg 70%
    19:00 +21°C° 0.1 mm 5 mps 751 mmHg 72%
    20:00 +20°C° 0.1 mm 4 mps 751 mmHg 73%
    21:00 +18°C° 0 mm 4 mps 751 mmHg 75%
    22:00 +17°C° 0 mm 4 mps 751 mmHg 76%
    23:00 +15°C° 0 mm 4 mps 752 mmHg 77%

    23 July, Tuesday

    Time Temperature Precipitation Wind Pressure Humidity
    00:00 +14°C° 0 mm 4 mps 752 mmHg 81%
    01:00 +13°C° 0 mm 3 mps 751 mmHg 86%
    02:00 +13°C° 0 mm 3 mps 751 mmHg 90%
    03:00 +12°C° 0 mm 3 mps 751 mmHg 91%
    04:00 +12°C° 0 mm 3 mps 751 mmHg 93%
    05:00 +12°C° 0 mm 3 mps 751 mmHg 94%
    06:00 +14°C° 0 mm 4 mps 751 mmHg 88%
    07:00 +15°C° 0 mm 4 mps 751 mmHg 82%
    08:00 +17°C° 0 mm 5 mps 751 mmHg 76%
    09:00 +20°C° 0 mm 5 mps 751 mmHg 70%
    10:00 +21°C° 0 mm 5 mps 751 mmHg 65%
    11:00 +22°C° 0 mm 6 mps 751 mmHg 59%
    12:00 +23°C° 0 mm 6 mps 751 mmHg 59%
    13:00 +23°C° 0 mm 6 mps 750 mmHg 59%
    14:00 +23°C° 0 mm 5 mps 750 mmHg 58%
    15:00 +23°C° 0.2 mm 5 mps 750 mmHg 59%
    16:00 +25°C° 0.2 mm 5 mps 750 mmHg 60%
    17:00 +25°C° 0.2 mm 5 mps 750 mmHg 60%
    18:00 +22°C° 0.2 mm 4 mps 750 mmHg 67%
    19:00 +21°C° 0.2 mm 4 mps 750 mmHg 74%
    20:00 +20°C° 0.2 mm 3 mps 750 mmHg 81%
    21:00 +19°C° 0 mm 3 mps 750 mmHg 86%
    22:00 +18°C° 0 mm 3 mps 750 mmHg 90%
    23:00 +17°C° 0 mm 3 mps 750 mmHg 94%

    24 July, Wednesday

    Time Temperature Precipitation Wind Pressure Humidity
    00:00 +17°C° 0 mm 3 mps 750 mmHg 95%
    01:00 +17°C° 0 mm 3 mps 750 mmHg 96%
    02:00 +17°C° 0 mm 3 mps 750 mmHg 96%
    03:00 +16°C° 0 mm 3 mps 750 mmHg 97%
    04:00 +16°C° 0 mm 3 mps 750 mmHg 97%
    05:00 +16°C° 0 mm 3 mps 750 mmHg 97%
    06:00 +17°C° 0 mm 3 mps 751 mmHg 92%
    07:00 +19°C° 0 mm 3 mps 751 mmHg 88%
    08:00 +20°C° 0 mm 3 mps 751 mmHg 83%
    09:00 +22°C° 0 mm 3 mps 751 mmHg 75%
    10:00 +24°C° 0 mm 3 mps 751 mmHg 67%
    11:00 +26°C° 0 mm 3 mps 751 mmHg 58%
    12:00 +27°C° 0 mm 3 mps 751 mmHg 55%
    13:00 +28°C° 0 mm 3 mps 751 mmHg 52%
    14:00 +28°C° 0 mm 3 mps 751 mmHg 48%
    15:00 +28°C° 0 mm 3 mps 751 mmHg 49%
    16:00 +28°C° 0 mm 3 mps 751 mmHg 50%
    17:00 +28°C° 0 mm 3 mps 751 mmHg 51%
    18:00 +27°C° 0 mm 3 mps 751 mmHg 59%
    19:00 +25°C° 0 mm 2 mps 751 mmHg 68%
    20:00 +24°C° 0 mm 2 mps 751 mmHg 77%
    21:00 +23°C° 0.1 mm 2 mps 751 mmHg 82%
    22:00 +21°C° 0.1 mm 2 mps 751 mmHg 86%
    23:00 +20°C° 0.1 mm 2 mps 751 mmHg 90%

    25 July, Thursday

    Time Temperature Precipitation Wind Pressure Humidity
    00:00 +20°C° 0.1 mm 2 mps 751 mmHg 92%
    01:00 +19°C° 0.1 mm 2 mps 751 mmHg 93%
    02:00 +19°C° 0.1 mm 2 mps 751 mmHg 95%
    03:00 +19°C° 0 mm 2 mps 751 mmHg 96%
    04:00 +19°C° 0 mm 2 mps 751 mmHg 96%
    05:00 +19°C° 0 mm 2 mps 752 mmHg 97%
    06:00 +20°C° 0 mm 2 mps 752 mmHg 91%
    07:00 +21°C° 0 mm 2 mps 752 mmHg 86%
    08:00 +22°C° 0 mm 3 mps 752 mmHg 80%
    09:00 +25°C° 0 mm 3 mps 752 mmHg 74%
    10:00 +26°C° 0 mm 3 mps 752 mmHg 67%
    11:00 +28°C° 0 mm 3 mps 752 mmHg 61%
    12:00 +29°C° 0 mm 3 mps 752 mmHg 57%
    13:00 +29°C° 0 mm 4 mps 752 mmHg 54%
    14:00 +30°C° 0 mm 4 mps 751 mmHg 50%
    15:00 +30°C° 0 mm 4 mps 751 mmHg 53%
    16:00 +30°C° 0 mm 4 mps 751 mmHg 55%
    17:00 +29°C° 0 mm 4 mps 751 mmHg 57%
    18:00 +28°C° 0 mm 4 mps 751 mmHg 64%
    19:00 +26°C° 0 mm 3 mps 751 mmHg 70%
    20:00 +25°C° 0 mm 3 mps 751 mmHg 77%
    21:00 +24°C° 0 mm 3 mps 751 mmHg 81%
    22:00 +22°C° 0 mm 3 mps 751 mmHg 86%
    23:00 +21°C° 0 mm 2 mps 752 mmHg 91%
    Show more